Location: Cassano d�Adda
(45.5333°N, 9.5167°E)
Time: 17:05:34
(UTC+00:00)

CSL-04 Rocket - Pass Details

Date: 08 December 2019
Orbit: 807 x 859 km, 99.0° (Epoch: 22 January)

Event Time Altitude Azimuth Distance (km) Brightness Sun altitude
Rises 16:57:20 0° 137° (SE) 3,314 6.6 -13.3°
Reaches altitude 10° 16:59:50 10° 128° (SE) 2,386 5.7 -13.7°
Maximum altitude 17:04:32 34° 65° (ENE) 1,307 4.2 -14.5°
Drops below altitude 10° 17:09:16 10° 2° (N) 2,407 5.9 -15.2°
Sets 17:11:47 0° 354° (N) 3,348 6.7 -15.7°
